Wind_Speed
51 51 52 52 52 52 52 51 50 49 49 49 48 47 47 47 46 46 45 44 43 43 43 43 42 42 42 42 42 42 42 41 41 42 41 41 40 39 39 38 37 37 36 36 36 36 36 36 35 35 34 33 33 33 32 32 32 32 32 31 31 31 30 29 29 29 30 30 29 28 27 26 26 25 24 24 23 22 21 21 20 20 19 19 19 19
51 51 52 52 51 51 51 51 50 48 48 48 47 47 46 46 45 44 44 43 43 42 42 42 42 42 42 42 42 41 41 41 41 41 41 40 40 39 38 37 37 36 36 36 36 36 36 35 35 34 34 33 33 33 33 32 32 31 31 31 31 30 29 29 29 29 29 28 27 27 26 26 26 25 25 24 23 22 21 21 20 20 19 19 19 19
51 51 51 51 51 50 50 50 49 48 47 47 46 46 45 45 44 43 43 42 42 42 42 42 42 42 42 42 42 41 41 41 41 40 40 40 39 39 38 37 36 36 35 35 35 35 35 35 35 34 34 33 33 33 33 32 31 31 31 32 32 31 29 28 28 29 28 27 27 26 26 26 26 26 25 24 23 22 21 21 21 20 20 19 19 19
50 50 51 51 50 49 49 48 48 47 46 46 45 45 44 43 43 42 42 42 42 43 43 43 43 42 42 42 42 41 41 40 40 40 39 39 39 38 37 37 36 35 35 35 35 35 35 35 34 34 33 33 33 33 33 32 31 31 32 33 32 31 29 28 28 28 28 27 26 26 26 27 26 26 25 24 23 22 21 21 21 20 20 19 19 20
49 49 50 49 49 48 48 47 47 46 45 45 44 43 42 42 42 42 42 42 42 43 43 43 43 42 42 42 41 41 40 40 39 39 39 39 39 38 37 37 36 35 34 34 34 34 34 34 34 33 33 33 33 32 32 32 31 31 32 33 32 30 28 28 28 28 28 27 26 27 27 27 27 26 25 24 23 22 21 21 20 20 20 20 20 20
48 48 48 48 48 47 47 46 45 45 44 43 42 42 41 41 42 42 42 42 43 43 43 43 42 42 42 41 41 40 40 39 39 39 39 39 39 38 37 36 35 35 34 34 34 34 34 34 34 33 33 32 32 32 32 31 31 31 32 31 30 28 28 28 28 28 28 27 27 27 28 28 27 26 25 24 23 22 21 21 20 20 20 20 20 20
48 47 47 47 47 47 46 45 44 43 42 41 41 41 41 41 41 42 42 43 43 43 43 43 42 42 41 41 41 40 40 40 39 39 39 39 39 38 37 36 35 35 34 34 34 34 34 34 33 33 33 32 32 31 31 31 31 31 30 29 28 27 27 28 29 28 28 28 28 29 29 28 27 26 25 24 23 22 21 21 21 21 21 21 21 21
47 47 46 46 45 45 44 43 42 41 40 40 41 41 41 41 42 42 43 43 43 43 43 43 42 42 41 41 40 40 40 40 40 40 39 39 38 38 37 36 35 35 34 34 34 34 34 33 33 33 32 32 32 31 31 31 31 30 29 28 27 27 27 28 29 29 29 29 30 30 29 28 27 26 25 24 23 22 21 21 21 21 21 21 21 21
46 46 45 44 43 42 42 41 40 39 39 39 40 41 41 42 42 43 43 43 43 43 42 42 42 42 41 41 40 40 40 40 40 40 40 39 39 38 37 36 36 35 35 34 34 34 33 33 33 33 32 32 31 31 31 31 31 31 30 28 27 27 28 29 30 30 31 31 31 30 29 28 27 26 25 24 23 22 21 21 21 21 21 21 21 21
45 44 43 43 42 40 39 39 40 39 39 40 40 41 42 42 43 43 43 43 43 42 42 42 42 42 42 41 41 41 41 41 41 40 40 40 39 38 37 36 36 35 35 34 34 34 33 33 33 32 32 32 31 32 32 32 32 31 30 29 28 28 29 30 31 32 32 32 31 30 29 28 27 26 25 24 22 22 21 21 21 21 21 21 22 22
43 42 41 40 40 39 38 39 39 40 40 40 41 42 42 42 42 43 43 43 43 42 42 41 41 41 41 41 42 41 41 41 41 41 40 40 39 38 37 36 36 35 35 34 34 34 33 33 32 32 32 31 32 32 33 33 33 31 30 29 28 28 30 31 32 33 33 32 30 29 28 27 27 26 25 23 22 22 21 21 21 21 21 21 22 22
41 40 39 38 38 38 38 39 39 40 41 41 42 42 43 43 42 42 42 42 42 42 42 42 42 42 42 42 42 42 42 42 42 41 41 40 39 38 37 36 35 35 34 34 34 33 33 32 32 31 31 31 32 33 33 33 31 30 29 28 27 28 29 31 32 33 32 30 29 28 27 27 27 26 24 23 22 21 21 21 21 21 21 21 22 22
39 38 38 38 38 39 39 40 40 41 41 41 42 42 43 43 42 42 42 42 42 42 42 42 42 42 42 42 42 42 42 42 42 41 41 40 39 38 37 36 35 34 34 34 33 33 32 32 31 31 31 32 32 33 33 31 29 28 27 26 26 27 28 30 32 32 30 29 28 27 27 27 27 25 24 23 22 21 21 21 21 21 21 21 22 22
38 38 38 38 39 39 40 40 41 42 42 42 42 42 42 42 42 42 42 42 42 42 42 42 42 43 43 42 43 43 43 42 42 41 40 39 38 37 36 35 34 34 33 33 33 32 32 31 31 31 31 31 32 32 31 29 27 26 25 25 25 27 28 30 31 31 30 28 27 27 28 27 26 25 24 23 22 21 21 21 21 21 21 21 21 22
38 38 38 39 40 40 40 41 41 42 42 42 42 41 42 42 42 42 42 42 43 43 42 43 43 43 43 43 43 43 43 42 42 41 40 39 37 36 35 35 34 34 33 33 32 32 31 31 31 31 31 31 31 30 29 27 26 24 24 25 26 28 30 31 31 31 29 28 28 28 28 27 26 25 23 22 21 21 21 21 21 21 21 21 21 21
38 38 39 40 40 41 41 41 41 42 42 42 41 41 41 42 42 42 42 43 43 43 43 43 43 43 43 43 43 42 42 42 41 40 39 38 37 35 34 34 34 33 33 32 32 31 31 30 30 30 30 30 29 28 27 25 24 24 25 26 28 29 30 31 31 30 29 29 29 29 28 27 26 24 23 22 21 21 21 21 21 21 21 21 21 21
39 39 40 40 41 41 41 41 41 41 41 41 41 41 41 42 42 42 43 43 43 43 43 43 43 43 44 43 43 42 41 41 40 39 38 37 35 34 34 34 34 33 33 32 32 31 31 30 30 29 29 28 27 26 25 25 25 25 27 28 29 30 30 30 30 30 30 29 29 29 28 27 25 23 22 21 21 21 21 21 21 21 21 21 21 21
40 40 40 41 41 41 41 40 41 41 41 41 41 41 41 42 42 42 43 43 43 43 43 43 43 44 44 43 42 42 41 40 39 38 37 35 35 34 34 34 34 33 33 32 32 31 31 30 30 29 28 27 26 25 25 25 26 27 28 28 29 29 29 29 29 29 30 30 29 29 27 26 24 22 21 21 21 20 21 21 21 21 21 21 21 21
40 41 41 41 41 40 40 40 40 40 41 41 41 41 42 42 42 42 43 43 43 43 43 44 44 43 43 42 42 41 40 39 38 37 35 35 34 34 33 33 33 33 33 32 32 31 31 31 30 29 28 27 26 25 26 27 28 28 28 28 27 27 27 28 28 29 29 29 28 27 26 24 23 22 21 20 20 21 21 21 21 21 21 21 22 22
41 41 41 40 40 40 40 39 39 40 40 41 41 42 42 42 42 42 43 43 43 43 43 43 43 43 42 41 41 40 39 38 37 35 34 34 34 33 33 33 33 33 33 32 32 32 31 31 31 30 28 27 26 26 27 28 29 29 28 27 26 26 26 27 27 28 28 28 27 26 24 23 22 21 20 20 20 21 21 21 21 21 21 22 22 22
41 41 40 40 39 39 39 39 39 39 40 41 41 42 42 42 42 42 43 43 43 43 43 43 42 42 41 40 40 39 38 36 35 34 34 34 33 33 33 33 33 33 32 32 32 32 32 32 31 30 29 28 27 27 27 29 29 28 27 26 26 26 26 26 26 26 26 26 25 24 23 22 21 20 20 20 21 21 21 21 21 22 22 22 22 22
41 40 40 39 39 39 39 39 39 39 40 41 41 42 42 42 42 42 42 42 42 42 42 42 41 40 40 39 38 37 36 35 34 34 33 33 33 33 32 32 32 32 32 32 32 32 32 32 31 30 29 28 27 27 28 28 28 28 27 26 26 26 25 25 24 24 24 24 23 23 22 21 20 20 20 20 21 21 21 21 21 21 22 22 22 22
40 40 39 39 39 38 38 38 39 39 40 41 41 41 42 42 42 42 42 42 42 41 41 40 40 39 38 38 37 36 35 34 33 33 33 33 33 32 32 32 32 32 32 32 32 32 31 31 30 29 28 27 27 27 27 28 28 27 27 27 26 25 24 23 23 23 23 22 22 21 21 20 20 20 20 21 21 21 21 21 21 21 21 22 22 22
40 39 39 38 38 38 38 38 39 39 40 40 41 41 41 41 41 41 41 41 41 40 40 39 38 38 37 36 35 34 33 33 33 32 32 32 32 31 31 31 31 31 31 31 31 30 29 29 28 27 26 26 26 27 27 27 27 27 27 26 25 23 22 21 21 21 21 21 21 20 20 20 20 20 20 21 21 21 21 21 21 21 21 22 22 22
39 39 38 38 38 38 38 38 39 39 40 40 40 41 41 41 40 40 40 40 39 39 38 38 37 36 35 34 34 33 33 32 32 32 32 32 31 31 30 30 30 30 30 29 29 28 27 26 26 26 26 26 26 27 27 27 27 27 26 24 23 21 20 20 20 20 20 20 20 20 20 20 20 20 21 21 21 21 21 21 21 21 21 22 22 22
39 38 38 38 38 38 38 39 39 39 40 40 40 40 40 40 40 39 39 39 38 37 37 36 35 34 34 33 33 32 32 31 31 31 31 31 31 30 29 29 29 28 28 27 26 26 26 26 26 26 27 27 27 27 27 27 26 25 23 22 20 19 19 19 19 19 19 19 19 20 20 20 20 20 20 21 21 21 21 21 21 21 22 22 22 22
38 38 38 38 38 38 38 39 39 39 39 39 39 39 39 39 39 38 38 37 36 36 35 34 34 33 33 32 32 31 31 31 31 30 30 30 30 29 28 28 27 26 25 25 24 24 24 25 25 26 26 27 27 26 25 24 23 22 20 19 19 18 18 19 19 19 19 19 19 20 20 20 20 20 20 20 20 21 21 21 21 21 22 22 22 23
38 38 38 38 38 38 38 38 38 39 39 39 38 38 38 38 37 37 36 36 35 34 34 33 33 32 32 31 31 31 30 30 30 30 30 29 29 28 27 26 26 25 23 23 22 22 22 22 23 23 24 23 23 22 22 21 19 19 18 18 18 18 18 18 19 19 19 19 19 20 20 20 20 20 20 20 20 20 20 21 21 21 21 22 22 22
38 38 38 38 38 38 38 38 38 38 38 38 38 37 37 36 36 35 35 34 34 33 33 32 32 31 31 30 30 30 30 30 30 29 29 28 27 26 25 25 24 23 22 21 20 20 20 19 19 20 20 20 19 19 18 17 17 17 17 17 17 18 18 18 19 19 19 19 20 20 20 20 20 20 20 20 20 20 20 20 20 21 21 21 21 22
38 37 37 37 37 37 37 37 37 37 37 37 37 36 36 35 34 34 34 33 33 32 32 31 31 30 30 30 30 29 29 29 29 29 28 27 25 24 24 23 23 22 21 20 19 18 18 17 17 17 17 17 16 16 16 16 16 16 16 17 17 18 18 19 19 19 19 20 19 19 19 19 19 19 19 19 19 19 19 20 20 20 20 21 21 21
37 37 37 37 37 37 37 36 36 36 36 36 35 35 34 34 33 33 32 32 31 31 31 30 30 30 29 29 29 29 28 28 28 28 27 25 24 23 22 22 22 21 20 19 18 17 16 16 15 15 15 15 15 15 15 15 16 16 17 17 18 18 19 19 19 19 19 19 19 19 19 19 19 19 19 19 19 19 19 19 19 20 20 20 21 21
37 37 37 36 36 36 36 35 35 35 35 34 34 33 33 32 32 31 31 30 30 30 30 29 29 29 29 29 29 28 28 27 27 27 26 24 23 22 21 21 20 20 19 18 17 16 15 15 15 14 14 14 14 15 15 16 16 17 17 18 19 19 19 19 19 19 19 19 19 18 18 18 18 18 18 18 19 19 19 19 19 20 20 20 21 21
37 36 36 36 35 35 34 34 34 34 33 33 32 32 31 31 30 30 29 29 29 29 29 29 29 29 29 29 29 28 27 27 26 26 24 23 21 21 20 20 19 19 18 17 16 16 15 15 15 15 15 15 15 15 16 16 17 17 18 19 19 19 19 19 19 19 18 18 18 18 18 18 18 18 18 18 18 19 19 19 20 20 20 21 21 22
36 36 35 34 34 34 33 33 33 32 32 31 31 30 30 29 29 28 28 28 28 28 28 29 29 29 29 29 29 28 26 26 25 24 23 21 20 19 19 19 18 18 18 17 16 16 15 15 15 15 15 15 16 16 17 17 18 18 19 19 19 19 19 18 18 18 18 18 18 18 18 18 18 18 18 18 18 19 19 20 20 21 21 22 22 23
35 35 34 33 33 33 32 32 31 31 30 30 29 29 28 28 28 27 27 27 27 28 29 29 29 29 29 28 27 26 25 24 23 22 21 20 19 18 18 18 18 18 17 17 16 16 16 16 16 16 16 16 17 17 18 18 19 19 19 19 19 18 18 18 18 18 18 18 18 18 17 18 18 18 18 18 19 19 20 20 21 22 22 23 24 25
34 34 33 32 32 32 31 31 30 29 29 28 28 28 27 27 27 27 27 27 27 28 29 29 29 29 28 27 26 24 23 22 22 21 20 19 18 17 17 17 17 17 17 17 17 17 16 16 17 17 17 18 18 18 19 19 19 19 19 19 18 18 18 18 18 18 18 17 17 17 17 17 18 18 18 19 19 20 21 21 22 23 24 25 26 26
34 33 32 31 31 31 30 29 29 28 28 27 27 27 26 26 26 27 27 27 28 28 29 29 28 28 27 27 25 24 23 22 21 20 19 18 18 17 17 17 17 17 17 17 17 17 17 17 18 18 19 19 19 19 19 20 19 19 19 18 18 18 18 18 18 18 17 17 17 17 17 18 18 18 19 20 20 21 22 23 23 24 25 26 27 27
33 32 31 31 30 30 29 28 28 27 27 26 26 26 26 26 27 27 27 27 28 28 28 28 27 27 27 26 25 24 23 22 21 20 19 18 18 17 17 17 18 18 18 18 18 18 18 19 19 19 20 20 20 20 20 19 19 19 18 18 18 18 18 18 18 17 17 17 17 18 18 18 19 20 20 21 22 22 23 23 24 24 25 25 26 27
32 31 31 30 29 29 28 28 27 27 26 26 26 26 26 27 27 27 28 28 28 28 27 27 27 27 26 26 25 24 22 21 20 20 19 18 18 18 18 18 18 18 18 19 19 19 19 20 20 20 20 20 20 20 19 19 19 18 18 18 18 18 18 18 18 18 18 18 18 18 19 20 20 21 21 22 22 22 22 23 23 23 24 24 25 25
31 31 30 29 29 28 28 28 27 26 26 26 26 26 27 27 28 28 28 28 28 27 27 27 27 27 26 26 24 23 22 21 20 20 19 19 19 19 19 19 19 20 20 20 20 20 21 21 21 21 20 20 20 19 19 19 18 18 18 18 18 18 18 18 18 18 18 19 19 19 20 20 21 21 21 21 21 21 21 21 21 22 22 23 24 25
31 30 30 29 29 28 28 28 27 26 26 26 26 27 27 28 28 28 28 28 28 28 27 27 27 26 26 25 24 22 21 20 20 20 20 20 20 20 20 20 21 21 21 21 21 21 21 21 21 20 20 19 19 19 18 18 18 18 18 18 18 18 18 18 19 19 19 20 20 20 20 20 20 20 20 19 19 19 19 20 20 21 22 23 24 24
31 30 29 29 29 29 28 28 27 26 26 26 27 27 28 28 28 28 28 28 28 28 27 26 26 25 24 24 23 21 21 20 20 20 20 21 21 21 21 22 22 22 22 22 22 22 21 21 20 20 19 19 19 18 18 18 18 18 18 18 19 19 19 19 20 20 20 20 20 20 20 20 19 19 18 18 18 19 19 20 20 21 22 23 23 24
30 30 30 29 29 29 29 28 27 26 26 26 26 27 27 28 28 28 28 28 28 27 26 25 24 24 23 22 21 21 20 20 21 21 21 22 22 22 22 22 23 23 23 22 22 21 21 20 20 19 19 19 19 18 18 18 19 19 19 19 19 19 20 20 20 20 20 20 20 19 19 18 18 18 18 18 18 19 19 20 20 21 22 22 23 24
30 30 30 30 30 30 29 28 27 26 26 26 26 27 27 27 28 28 28 28 27 26 25 24 23 23 22 21 21 21 21 21 21 22 22 22 22 23 23 23 23 23 22 22 21 21 20 20 19 19 19 19 19 19 19 19 19 19 20 20 20 20 20 20 20 20 20 20 19 19 18 18 18 18 18 18 19 19 20 20 21 21 22 22 23 24
30 30 30 30 30 30 29 28 27 26 26 26 26 26 26 26 27 27 27 27 26 25 24 23 23 22 21 21 21 21 21 21 22 22 23 23 23 23 23 23 22 22 22 21 21 20 19 19 19 19 19 19 19 19 19 20 20 20 20 21 21 21 21 20 20 20 19 19 19 18 18 18 18 19 19 19 20 20 20 20 21 21 22 22 23 24
30 31 31 31 31 30 29 28 27 26 26 25 25 26 26 26 26 26 26 26 25 25 24 23 22 22 21 21 22 22 22 22 22 22 23 23 23 23 22 22 22 21 21 20 20 20 19 19 19 20 20 20 20 20 20 20 21 21 21 21 21 21 20 20 20 20 19 19 19 19 19 19 19 19 20 20 20 21 21 21 21 22 22 23 23 24
31 31 32 31 31 30 29 28 27 26 25 25 25 25 25 26 26 26 26 26 25 24 24 23 23 22 22 22 22 22 22 22 22 22 22 22 22 22 21 21 21 21 20 20 20 20 20 20 20 20 20 20 20 20 21 21 21 21 21 21 21 21 20 20 20 20 19 19 19 20 20 20 20 20 20 21 21 21 21 22 22 22 23 23 24 24
31 32 32 32 31 30 29 27 26 26 25 25 25 25 25 25 26 26 25 25 25 24 24 23 23 22 22 22 22 22 22 22 22 22 22 21 21 21 21 21 20 20 20 20 20 20 20 20 20 21 21 21 21 21 21 22 22 22 21 21 21 21 20 20 20 20 20 20 20 20 21 21 21 21 21 21 22 22 22 22 23 23 24 24 25 25
31 32 32 31 31 30 28 27 26 26 26 25 25 25 25 25 25 25 25 25 25 24 23 23 22 22 22 22 22 22 22 22 21 21 21 21 21 21 21 21 21 20 20 20 20 21 21 21 21 21 21 21 22 22 22 22 22 22 22 21 21 21 20 20 20 20 21 21 21 21 21 22 22 22 22 22 22 22 23 23 23 24 25 26 26 27
31 32 31 31 30 29 28 27 26 26 26 26 26 26 25 25 25 25 25 24 24 24 23 23 22 22 21 21 21 21 21 21 21 21 21 21 21 21 21 21 21 21 21 21 21 21 21 21 22 22 22 22 22 22 22 22 22 22 22 21 21 21 21 21 21 21 21 22 22 22 22 22 22 22 22 22 23 23 23 24 25 25 26 27 28 28
31 31 31 30 29 28 27 27 27 26 26 26 26 26 25 25 24 24 24 24 24 23 23 22 22 22 22 21 21 21 21 21 22 22 22 22 22 22 22 22 22 22 22 22 22 22 22 22 22 22 23 23 23 23 23 23 23 22 22 22 22 22 22 22 22 22 22 22 23 23 23 23 23 23 23 23 23 24 24 25 26 26 27 28 29 29
Wind_Direction
276 276 276 276 277 277 278 278 278 279 279 280 281 283 284 285 286 286 285 285 284 284 285 285 286 286 287 287 288 289 289 289 289 289 289 288 288 287 287 286 285 283 282 280 279 278 278 278 278 278 279 279 280 280 280 279 279 280 280 280 279 277 275 274 273 272 271 268 264 260 255 252 250 249 248 246 244 243 244 245 248 249 251 251 251 251
275 275 275 275 275 276 276 277 277 278 278 280 282 283 284 285 285 284 284 284 283 284 284 285 286 287 287 287 288 288 288 288 288 288 288 288 288 287 286 285 284 283 281 280 278 277 277 277 277 278 278 279 279 279 279 279 279 280 281 281 279 277 274 273 272 272 270 267 262 257 253 250 249 248 246 244 242 241 242 244 247 248 249 250 250 250
275 274 274 274 274 274 275 276 276 277 279 280 282 283 284 283 283 283 282 283 283 284 284 285 286 287 287 288 288 288 288 288 288 288 288 287 287 287 286 285 283 282 281 279 277 277 276 276 276 277 278 278 279 279 279 278 279 280 281 281 279 276 273 271 271 271 269 266 261 256 252 249 248 247 245 242 240 240 241 243 245 247 248 249 249 249
273 273 273 273 273 273 274 275 276 278 279 281 282 282 282 282 281 281 282 282 283 284 285 286 286 287 287 288 288 288 288 288 288 287 287 287 286 286 285 284 283 281 280 278 277 276 276 276 276 277 277 278 279 279 279 278 278 278 279 279 277 274 271 270 269 269 268 264 259 254 251 249 247 246 243 240 238 238 240 242 245 246 247 248 248 248
272 272 272 272 273 274 274 275 277 278 279 280 280 280 280 280 280 281 282 283 284 285 285 286 287 287 287 287 287 287 287 287 287 287 287 286 286 285 285 284 283 281 279 278 277 276 276 276 276 277 277 278 279 279 279 279 278 277 277 276 275 272 269 267 267 267 265 262 258 253 250 248 247 245 241 238 237 237 239 242 244 246 247 247 248 248
271 271 271 272 273 274 275 276 277 278 278 278 278 278 279 279 280 281 282 283 284 285 285 286 286 286 286 286 286 286 286 286 286 286 286 286 285 285 284 284 282 281 279 278 277 276 276 276 276 276 277 277 278 279 279 279 279 278 277 275 273 269 267 266 265 265 264 261 257 252 249 247 245 243 239 237 236 237 239 241 244 246 247 247 248 248
271 271 271 272 274 275 276 276 277 277 277 277 277 277 278 279 280 281 282 283 284 284 284 284 284 284 285 285 285 286 286 286 286 286 285 285 285 285 284 283 282 280 279 277 277 276 276 276 276 276 276 277 277 278 278 279 279 278 277 275 271 268 266 265 265 264 263 260 256 252 249 246 244 241 237 235 235 236 239 241 243 245 247 248 248 248
270 271 272 273 274 275 275 275 275 275 275 275 276 277 278 279 280 281 281 282 283 283 283 284 284 284 284 284 285 285 286 286 285 285 285 285 284 284 283 282 281 280 279 278 277 277 276 276 276 276 276 276 276 277 277 278 278 277 275 273 270 267 265 265 264 263 262 259 255 251 248 245 242 239 235 234 234 236 238 241 243 245 247 248 248 248
271 272 273 273 274 273 274 274 274 274 274 275 275 277 278 279 280 281 281 281 282 282 282 283 283 284 284 284 285 285 285 285 285 284 284 284 283 283 282 281 280 279 278 278 277 277 277 276 276 276 276 276 276 276 276 276 276 274 273 270 267 265 264 264 263 262 261 259 256 252 248 244 240 236 234 233 234 236 238 241 243 245 247 248 249 249
271 272 272 272 272 272 272 272 273 274 274 275 275 276 277 278 279 280 281 281 281 281 282 282 283 283 284 284 284 284 284 284 284 283 283 283 282 282 281 281 280 279 278 278 277 277 277 276 276 275 275 275 275 276 276 275 274 272 269 267 265 264 264 265 264 264 262 261 258 253 247 241 237 235 233 233 234 236 239 241 243 246 247 248 249 249
271 271 270 270 270 271 271 271 272 273 274 275 276 277 277 278 278 279 280 281 281 281 282 282 282 282 283 284 284 284 284 283 283 283 282 281 281 281 280 280 279 278 278 278 277 277 277 276 276 275 275 275 275 276 276 275 273 269 266 263 263 264 267 269 270 269 267 264 259 252 244 239 235 233 232 233 234 237 239 242 244 246 247 248 249 249
269 269 269 269 269 270 271 271 272 273 274 275 276 276 277 277 278 278 279 280 280 281 281 281 281 282 282 282 283 283 283 282 282 281 281 280 280 280 279 279 278 278 277 277 277 277 276 276 275 275 275 275 277 278 278 277 273 268 263 260 261 264 269 273 275 274 271 265 258 249 241 236 233 232 232 233 235 237 239 242 244 246 247 248 249 249
267 267 267 268 269 269 270 271 272 273 274 274 275 276 276 277 278 278 279 279 280 280 280 281 281 281 281 282 282 282 282 281 281 280 280 279 279 279 278 278 277 277 276 276 276 276 276 275 275 275 275 276 278 279 280 278 274 268 262 259 260 264 270 274 276 275 270 263 254 245 238 234 232 231 231 233 235 237 240 242 245 246 247 248 249 249
266 266 267 268 268 269 270 271 272 273 273 274 275 275 276 277 278 278 278 279 279 280 280 280 280 281 281 281 281 281 281 280 280 279 279 278 278 278 278 277 276 276 275 275 275 275 274 274 274 275 275 276 278 279 279 277 272 266 261 259 261 265 269 272 274 272 266 258 248 240 235 232 230 230 231 233 235 238 240 243 245 247 248 248 249 249
265 266 267 268 268 269 270 271 272 272 273 274 275 276 276 277 277 278 278 278 279 279 279 280 280 280 280 280 280 280 280 280 279 278 278 277 277 277 276 276 275 274 274 273 273 273 273 273 273 274 274 275 276 277 276 273 269 265 261 261 263 266 269 271 271 267 261 252 244 237 232 230 230 230 232 234 236 239 241 244 245 247 248 248 249 249
265 265 266 267 268 269 270 270 271 272 273 274 275 275 276 276 277 277 278 278 278 279 279 279 279 280 280 280 279 279 279 278 278 277 277 277 276 276 275 274 274 273 272 272 271 271 271 272 272 273 274 275 275 275 273 270 266 264 263 264 266 268 270 270 268 263 256 247 240 234 231 229 229 230 232 235 237 240 243 245 246 247 248 249 249 249
265 265 266 267 268 269 270 270 271 272 273 274 275 275 276 276 277 277 278 278 278 278 278 278 279 279 279 279 279 278 277 277 276 276 276 276 275 275 274 273 272 271 271 270 270 270 270 270 270 271 271 272 273 272 271 268 266 265 266 268 269 270 271 269 266 260 252 244 237 232 230 229 230 231 233 236 239 241 244 246 247 248 249 249 249 249
265 265 266 267 268 269 270 271 272 272 273 274 275 275 276 276 277 277 277 278 278 278 278 278 278 278 278 278 278 277 276 276 275 275 275 274 274 273 272 271 270 270 269 268 268 268 268 268 268 268 268 268 268 268 268 267 266 267 269 271 272 273 271 268 263 257 249 241 235 232 230 230 231 233 235 238 241 243 245 247 248 249 249 249 249 249
265 266 266 267 268 269 270 271 272 273 274 274 275 275 276 276 277 277 277 277 277 277 277 277 278 278 278 277 276 276 275 275 275 274 274 273 272 271 271 270 269 268 268 267 267 267 267 267 267 266 265 265 265 265 266 266 267 268 269 271 273 273 270 266 261 254 246 240 235 232 231 231 233 235 237 240 242 245 246 248 249 249 250 250 250 250
265 266 267 268 269 270 271 272 272 273 274 274 275 276 276 276 277 277 277 277 277 277 277 277 277 277 277 276 275 274 274 274 274 273 273 272 271 270 269 268 268 267 267 267 267 267 267 267 266 265 264 263 263 264 265 267 267 268 269 271 272 271 268 264 258 250 244 238 235 233 232 233 235 237 240 242 244 246 248 249 249 250 250 250 251 251
266 267 267 268 269 270 272 272 273 273 274 274 275 276 276 276 276 276 276 276 276 276 276 276 276 276 275 274 273 273 274 274 273 272 272 271 270 269 268 268 267 267 267 267 267 267 267 267 265 264 262 262 262 264 266 267 267 268 269 270 270 269 266 260 254 247 241 237 235 234 235 236 238 240 243 245 247 248 249 250 250 251 251 251 251 252
266 267 268 269 270 271 272 272 273 273 274 274 275 275 276 276 276 276 276 276 275 275 275 275 275 274 274 273 273 273 273 273 272 271 271 270 269 268 268 267 267 267 267 268 268 268 268 267 265 263 261 260 261 263 265 266 267 268 269 269 269 267 263 257 250 244 239 237 236 236 237 239 241 243 246 247 249 250 251 252 252 252 252 253 253 253
267 268 269 270 270 271 272 273 273 273 274 274 275 275 275 275 275 275 275 275 275 275 274 274 274 273 272 272 272 272 272 271 271 270 270 269 268 268 267 267 267 267 268 269 269 269 268 266 264 261 260 259 261 263 264 266 267 268 268 268 267 264 258 252 245 240 237 236 237 238 240 242 245 247 249 250 251 252 253 253 253 254 254 254 254 254
267 268 269 270 271 271 272 273 273 273 274 274 274 275 275 275 275 274 274 274 274 274 273 273 272 272 271 271 271 270 270 270 269 269 268 268 268 268 267 267 267 268 269 269 270 269 267 265 262 260 258 259 260 262 263 264 266 267 267 266 263 259 253 246 241 238 237 237 239 241 243 245 248 250 251 252 253 254 254 255 255 255 255 255 256 256
267 268 269 270 271 271 272 272 273 273 273 274 274 274 274 274 274 274 274 273 273 273 272 272 271 270 270 270 269 269 269 268 268 268 268 268 268 268 267 267 268 268 269 269 269 268 266 264 261 259 258 259 259 261 262 263 264 264 264 262 258 253 247 241 238 237 237 239 241 243 246 249 250 252 253 254 255 255 255 256 256 256 256 256 257 257
267 268 269 270 270 271 272 272 272 273 273 273 273 274 274 274 274 273 273 273 272 272 271 270 270 269 269 268 268 268 267 267 267 267 267 268 268 268 267 267 267 267 268 268 268 268 267 265 263 261 260 259 259 260 261 261 262 261 259 256 251 246 241 238 237 237 239 241 244 246 249 251 253 254 255 255 256 256 256 256 256 257 257 257 257 258
267 268 269 269 270 271 271 272 272 272 273 273 273 273 273 273 273 273 272 272 271 271 270 269 268 268 267 267 266 266 266 267 267 267 267 268 267 267 266 265 265 265 266 267 268 268 268 267 265 263 262 261 260 260 260 259 258 256 253 248 243 239 237 236 237 239 242 244 247 249 251 253 254 255 255 256 256 256 256 257 257 257 257 258 258 258
267 268 269 269 270 270 271 271 272 272 272 273 273 273 273 273 272 272 271 271 270 269 268 268 267 266 266 265 265 265 265 266 267 267 267 266 265 264 263 263 262 262 263 264 265 265 266 265 264 263 262 260 259 257 256 254 252 248 244 240 237 236 236 237 240 242 245 247 249 251 252 253 254 255 255 256 256 256 257 257 258 258 258 259 259 260
267 268 268 269 269 270 270 271 271 272 272 272 272 272 272 272 271 271 270 270 269 268 267 266 265 265 264 264 264 264 265 266 266 266 265 263 262 261 260 260 259 259 259 260 260 260 260 259 258 257 255 254 252 250 248 245 242 239 237 235 235 236 238 240 243 245 247 249 250 252 253 253 254 255 255 256 256 257 258 258 259 259 260 260 261 262
266 267 268 268 269 269 270 270 271 271 272 272 272 272 272 271 270 270 270 269 268 267 266 265 264 264 263 263 263 264 264 264 264 263 262 260 258 257 256 255 255 255 255 255 255 254 253 251 249 247 245 243 241 239 237 235 233 232 232 233 235 238 240 243 245 247 248 250 251 252 253 254 254 255 256 256 257 258 259 259 260 261 261 262 263 263
266 266 267 268 268 269 269 270 271 271 272 272 272 271 271 270 270 269 269 268 267 266 265 265 264 263 263 263 263 262 261 261 261 260 258 256 254 252 251 250 250 249 249 248 247 246 244 242 240 237 235 232 230 229 228 228 229 230 232 235 237 240 243 245 247 248 249 250 251 252 252 253 254 255 255 257 257 258 260 261 261 262 263 264 265 265
265 266 266 267 268 268 269 270 270 271 271 271 271 270 270 269 269 268 268 267 266 265 265 264 264 263 262 261 260 259 257 257 256 255 253 252 250 248 246 244 243 242 241 239 238 237 235 233 231 229 227 226 225 225 226 228 230 232 235 238 240 243 245 247 248 249 250 250 251 251 252 253 254 255 256 257 258 259 261 262 263 264 265 266 267 267
264 265 265 266 267 268 268 269 270 270 270 270 269 269 268 268 268 267 266 266 265 265 265 264 264 262 261 259 257 254 253 252 250 249 248 246 244 242 240 238 236 234 233 231 229 228 227 226 225 225 225 225 225 227 228 231 234 236 239 241 243 245 246 247 248 248 249 249 250 251 252 253 254 255 256 258 259 261 262 263 265 266 267 268 269 269
263 264 265 265 266 267 268 268 268 268 268 268 267 267 267 267 266 265 265 264 264 264 264 264 262 260 257 254 251 249 247 246 245 244 243 241 239 236 233 231 229 228 226 224 223 222 222 222 223 224 225 227 228 230 232 235 237 239 241 243 244 245 246 246 247 247 248 249 250 251 252 253 255 256 258 259 261 263 264 266 267 268 269 270 271 271
262 263 264 265 266 266 267 267 267 266 266 266 265 265 265 265 264 264 263 263 264 264 264 263 260 257 253 249 246 243 243 242 241 240 238 236 233 231 228 226 225 223 222 221 220 220 221 222 223 225 227 229 231 233 235 237 238 240 241 242 243 243 244 245 246 247 249 250 251 253 254 255 257 258 260 262 263 265 267 268 269 270 271 272 273 273
261 262 263 264 264 265 265 265 264 264 263 263 264 264 264 264 264 263 263 263 264 263 262 260 257 253 249 246 243 241 240 238 237 236 234 232 229 227 225 224 223 222 221 221 221 221 222 224 226 227 229 231 233 235 236 238 238 239 240 241 242 242 244 245 247 249 250 252 253 255 256 258 259 261 263 264 266 267 269 270 272 273 274 275 275 276
260 261 262 262 263 263 263 262 261 261 261 261 262 263 263 263 263 263 263 263 263 263 260 257 253 249 246 243 240 238 237 235 235 234 232 229 227 225 224 224 224 223 223 223 223 224 224 226 227 229 231 232 234 235 236 237 238 239 239 240 242 243 245 247 249 251 252 254 255 257 259 260 262 263 265 267 268 270 271 272 274 275 276 277 278 278
259 259 260 260 261 260 260 259 258 258 259 260 261 262 263 264 264 263 263 263 262 261 258 254 249 246 243 240 238 236 234 233 233 233 231 229 226 225 225 225 225 226 226 226 226 226 227 228 229 230 231 232 234 235 236 236 238 239 240 242 243 245 247 249 251 252 254 255 257 259 260 262 264 265 267 268 270 272 273 275 276 277 278 279 280 281
257 258 258 258 258 257 256 255 255 256 257 259 261 263 263 264 263 263 262 261 260 258 254 250 246 243 241 239 236 235 234 233 233 233 232 229 227 226 226 227 227 228 229 229 229 229 229 230 230 231 232 232 233 234 235 237 238 240 242 244 246 248 250 251 252 254 255 257 259 260 262 263 265 267 268 270 272 274 275 277 279 280 281 282 283 284
256 256 256 256 255 254 253 252 253 254 256 259 261 263 263 263 262 262 260 259 257 254 250 247 244 242 240 238 236 235 233 233 233 233 232 231 229 227 227 228 228 229 230 231 231 231 231 232 232 232 233 233 234 235 237 239 241 243 245 246 248 249 251 252 254 255 257 258 260 262 263 265 266 268 270 272 274 276 278 280 281 282 284 285 286 286
254 254 254 253 252 251 250 250 251 253 255 258 260 262 262 261 260 259 257 255 253 250 247 245 243 241 240 238 236 234 233 232 233 233 232 232 231 229 229 229 230 230 231 232 232 232 232 232 233 233 234 235 236 238 240 242 244 246 247 248 249 250 252 253 255 257 259 260 262 263 265 266 268 270 272 274 276 278 280 281 283 284 285 287 287 288
252 252 251 250 249 248 248 248 250 252 255 258 260 261 261 260 258 256 253 251 248 246 244 242 241 240 239 238 236 234 233 232 232 232 232 232 232 231 231 230 231 231 232 232 232 232 233 233 233 234 235 237 239 241 243 245 246 248 248 249 250 252 253 255 257 259 261 262 263 264 266 267 269 271 273 275 277 279 280 282 283 285 286 287 288 289
251 250 249 248 247 247 247 247 249 251 255 257 259 260 260 259 257 253 251 248 246 244 242 241 240 239 238 237 236 235 233 233 233 233 233 233 233 232 232 231 231 231 232 232 232 232 232 233 234 235 237 239 242 243 245 247 248 249 250 251 252 254 256 258 259 261 262 262 263 265 266 268 270 272 274 275 277 279 280 282 284 285 286 287 288 289
249 248 247 246 246 245 246 247 249 251 254 257 259 260 259 257 254 251 249 247 245 244 243 242 241 240 238 237 236 235 234 233 233 233 233 233 232 232 232 231 231 231 231 231 231 232 233 234 236 238 240 242 243 245 246 247 249 250 251 253 255 256 258 259 260 261 261 262 263 264 266 268 270 272 274 275 277 279 281 282 284 285 286 287 288 288
247 246 245 245 245 245 245 246 248 251 254 257 258 258 257 255 252 249 247 246 244 244 243 243 242 240 239 238 237 236 235 234 233 233 233 232 232 231 231 230 230 230 230 231 232 233 235 237 238 240 242 243 245 246 247 248 250 252 253 255 257 258 259 259 259 259 260 261 262 264 266 268 270 272 274 276 277 279 281 283 284 285 286 287 287 288
245 245 244 244 244 244 245 246 248 251 254 256 257 257 255 253 250 248 246 245 244 244 244 244 243 242 240 239 237 236 235 234 233 232 231 231 230 230 230 229 230 230 231 232 233 235 237 239 241 243 244 245 246 247 248 250 252 253 255 256 257 258 258 258 258 258 259 260 262 264 266 268 271 273 275 277 278 280 282 283 284 285 285 286 286 286
244 243 243 243 243 244 244 246 248 251 253 255 256 255 254 252 249 247 245 245 244 244 244 244 243 242 240 239 237 236 234 233 232 231 230 229 229 229 229 230 230 231 233 234 236 238 240 242 243 245 246 247 248 249 250 252 254 255 256 256 256 256 255 255 256 257 259 261 263 265 267 269 271 274 276 277 279 281 282 284 284 285 285 285 285 285
243 243 243 243 243 243 244 245 247 250 253 254 255 254 252 250 248 246 245 245 245 244 244 243 242 241 239 237 236 234 232 231 230 229 229 229 230 230 231 232 233 234 236 238 240 241 243 244 245 246 247 249 250 251 252 254 255 255 255 255 254 254 254 254 255 257 259 262 264 266 268 270 272 274 276 278 279 281 282 283 284 284 284 284 284 284
243 242 242 242 242 242 243 244 246 249 251 252 252 252 250 249 247 246 246 245 245 244 243 241 240 239 237 235 233 232 231 230 229 229 230 231 232 233 234 236 237 238 240 241 242 243 245 246 247 248 249 250 252 253 254 255 255 255 254 253 252 252 252 253 255 257 260 262 264 266 268 270 272 274 276 277 279 280 281 282 283 283 283 283 283 283
242 242 242 241 241 241 241 243 245 247 249 250 250 249 248 247 246 246 246 245 245 243 241 239 237 235 234 232 231 230 230 230 230 231 232 234 235 237 238 239 241 242 243 244 245 245 246 247 249 250 251 253 254 254 254 254 254 253 252 251 251 251 251 253 255 258 260 262 264 266 268 270 272 274 275 277 278 279 280 281 281 281 282 282 283 283
241 241 240 240 239 239 239 241 243 245 246 247 248 247 247 246 246 245 245 245 244 241 238 236 234 232 230 230 229 229 230 231 232 233 235 237 239 240 241 242 244 244 245 246 246 247 248 249 251 252 254 255 256 256 255 254 252 251 250 250 250 250 251 253 255 258 260 262 264 266 268 270 272 273 275 276 278 279 279 280 281 281 282 282 283 283
Height
5690 5688 5687 5686 5685 5685 5684 5683 5683 5683 5682 5681 5681 5681 5680 5680 5680 5679 5679 5679 5678 5677 5677 5676 5676 5676 5675 5675 5674 5674 5673 5672 5671 5670 5669 5668 5668 5667 5667 5666 5666 5666 5665 5665 5664 5664 5664 5663 5663 5663 5662 5662 5662 5662 5661 5661 5661 5661 5661 5661 5661 5660 5660 5660 5660 5660 5660 5659 5659 5659 5660 5660 5661 5662 5662 5663 5663 5663 5664 5664 5665 5665 5666 5667 5667 5668
5685 5684 5683 5682 5682 5681 5680 5679 5679 5679 5679 5677 5677 5677 5677 5677 5676 5675 5675 5675 5675 5674 5674 5673 5673 5672 5672 5671 5671 5670 5670 5669 5668 5667 5666 5665 5665 5664 5664 5663 5663 5663 5662 5662 5661 5661 5661 5660 5660 5660 5660 5660 5659 5659 5659 5659 5658 5658 5658 5658 5658 5658 5658 5658 5657 5657 5657 5657 5657 5657 5658 5658 5659 5660 5660 5660 5661 5661 5662 5662 5663 5664 5665 5665 5665 5666
5682 5680 5679 5678 5678 5678 5677 5676 5675 5675 5675 5674 5673 5673 5673 5673 5673 5672 5672 5671 5671 5670 5670 5670 5670 5669 5668 5668 5667 5667 5667 5666 5665 5664 5663 5662 5661 5661 5661 5660 5660 5660 5660 5659 5659 5658 5658 5658 5658 5657 5657 5657 5657 5656 5656 5656 5656 5656 5656 5656 5656 5655 5655 5655 5655 5655 5655 5655 5655 5655 5656 5656 5657 5658 5658 5659 5659 5659 5660 5660 5661 5662 5663 5663 5664 5664
5678 5677 5675 5674 5674 5674 5673 5673 5672 5671 5670 5670 5670 5670 5670 5670 5669 5669 5669 5668 5668 5667 5667 5666 5666 5665 5665 5664 5664 5663 5663 5662 5661 5660 5660 5659 5659 5658 5658 5658 5657 5657 5657 5656 5656 5655 5655 5655 5655 5655 5655 5655 5654 5654 5654 5654 5653 5653 5654 5653 5653 5653 5653 5653 5653 5653 5653 5653 5653 5653 5654 5654 5655 5655 5656 5657 5657 5657 5658 5659 5659 5660 5661 5662 5662 5663
5674 5673 5671 5670 5670 5670 5669 5669 5668 5668 5667 5667 5667 5667 5667 5666 5666 5665 5665 5665 5665 5664 5663 5663 5662 5662 5661 5661 5660 5660 5660 5659 5659 5658 5657 5656 5656 5655 5655 5655 5655 5654 5654 5653 5653 5653 5653 5653 5652 5652 5652 5652 5652 5651 5651 5651 5651 5651 5651 5651 5650 5650 5651 5651 5651 5651 5650 5651 5651 5651 5652 5652 5653 5654 5654 5655 5655 5655 5656 5657 5658 5658 5659 5660 5660 5661
5669 5669 5667 5666 5666 5665 5665 5665 5665 5665 5664 5664 5664 5664 5663 5663 5663 5662 5662 5661 5661 5660 5660 5660 5659 5659 5658 5658 5657 5657 5656 5656 5656 5655 5655 5654 5653 5653 5652 5652 5651 5651 5651 5650 5650 5650 5650 5650 5650 5650 5650 5649 5649 5649 5649 5649 5649 5648 5648 5648 5648 5648 5648 5648 5648 5648 5649 5649 5649 5649 5650 5650 5651 5651 5652 5653 5653 5654 5654 5655 5656 5656 5657 5658 5659 5659
5665 5664 5663 5663 5662 5661 5661 5661 5661 5661 5661 5661 5660 5660 5660 5660 5660 5659 5659 5658 5658 5657 5657 5656 5656 5655 5655 5655 5654 5654 5653 5653 5652 5652 5651 5650 5650 5650 5649 5649 5649 5648 5648 5648 5648 5648 5648 5647 5647 5647 5647 5647 5647 5646 5646 5646 5646 5646 5645 5645 5646 5646 5646 5646 5646 5646 5646 5646 5647 5647 5647 5648 5649 5649 5650 5651 5651 5652 5652 5653 5654 5655 5655 5656 5657 5657
5660 5660 5659 5659 5659 5658 5658 5658 5658 5658 5658 5658 5658 5657 5657 5657 5656 5656 5655 5655 5655 5654 5654 5653 5652 5652 5652 5651 5651 5650 5650 5649 5649 5648 5648 5647 5647 5646 5646 5646 5645 5645 5645 5645 5645 5645 5645 5645 5645 5644 5644 5644 5644 5644 5644 5644 5644 5643 5643 5643 5643 5643 5644 5644 5644 5644 5644 5644 5644 5645 5645 5646 5646 5647 5648 5649 5649 5650 5650 5651 5652 5653 5653 5654 5655 5655
5656 5656 5655 5655 5655 5655 5655 5654 5654 5654 5655 5655 5655 5654 5654 5654 5653 5653 5652 5652 5651 5651 5650 5650 5649 5648 5648 5648 5648 5647 5647 5646 5645 5645 5645 5644 5644 5643 5643 5643 5643 5642 5642 5642 5642 5642 5642 5642 5642 5642 5642 5642 5641 5641 5641 5641 5641 5641 5641 5641 5641 5641 5641 5641 5641 5641 5641 5641 5642 5642 5643 5644 5644 5645 5646 5647 5647 5648 5649 5650 5650 5651 5651 5652 5653 5654
5652 5652 5652 5651 5651 5651 5651 5651 5651 5650 5651 5651 5651 5651 5650 5650 5650 5649 5649 5648 5648 5647 5647 5647 5646 5645 5645 5644 5644 5644 5643 5643 5642 5642 5641 5641 5641 5640 5640 5640 5640 5640 5639 5639 5639 5639 5639 5639 5639 5639 5639 5639 5639 5639 5639 5639 5638 5638 5638 5639 5639 5639 5639 5639 5639 5639 5639 5639 5639 5640 5640 5641 5642 5643 5644 5645 5645 5646 5647 5648 5648 5649 5650 5650 5651 5651
5648 5648 5648 5648 5648 5648 5648 5648 5648 5647 5648 5648 5648 5647 5647 5647 5647 5646 5645 5645 5644 5644 5644 5643 5643 5642 5641 5641 5640 5640 5640 5639 5639 5638 5638 5638 5638 5638 5637 5637 5637 5637 5636 5636 5636 5636 5636 5636 5636 5636 5636 5636 5636 5636 5636 5635 5635 5635 5635 5636 5636 5636 5636 5636 5636 5636 5636 5636 5637 5638 5639 5639 5640 5641 5642 5643 5644 5644 5645 5646 5646 5647 5648 5649 5649 5650
5645 5645 5645 5645 5645 5645 5645 5645 5645 5644 5645 5645 5645 5644 5644 5643 5643 5643 5643 5641 5641 5641 5640 5640 5639 5639 5638 5638 5637 5637 5636 5636 5635 5635 5635 5635 5635 5635 5635 5634 5634 5634 5634 5633 5633 5633 5633 5633 5633 5634 5634 5634 5634 5633 5633 5632 5632 5632 5633 5633 5634 5634 5634 5634 5634 5634 5634 5634 5635 5636 5636 5637 5638 5639 5640 5641 5642 5643 5643 5644 5645 5645 5646 5647 5647 5648
5641 5641 5641 5641 5641 5641 5641 5641 5641 5641 5641 5641 5641 5640 5640 5640 5640 5640 5640 5639 5638 5637 5637 5637 5636 5635 5635 5635 5634 5634 5633 5632 5632 5632 5631 5631 5631 5631 5631 5631 5631 5631 5631 5630 5630 5630 5630 5630 5630 5631 5631 5631 5631 5630 5630 5630 5630 5630 5630 5630 5631 5632 5632 5632 5632 5632 5632 5632 5633 5634 5635 5635 5636 5637 5638 5639 5640 5641 5641 5642 5643 5644 5644 5645 5645 5646
5638 5638 5638 5638 5638 5638 5638 5638 5638 5637 5637 5637 5637 5637 5637 5636 5636 5636 5636 5635 5634 5634 5634 5634 5633 5632 5631 5631 5631 5630 5630 5629 5629 5628 5628 5628 5628 5628 5628 5628 5628 5628 5628 5628 5627 5627 5628 5628 5628 5628 5628 5628 5628 5628 5628 5627 5627 5627 5628 5628 5629 5630 5630 5630 5630 5630 5630 5630 5631 5632 5633 5634 5635 5635 5636 5637 5638 5639 5640 5640 5641 5642 5642 5643 5644 5644
5634 5635 5635 5634 5634 5634 5635 5635 5634 5634 5634 5634 5634 5634 5634 5633 5632 5632 5632 5631 5631 5630 5630 5630 5629 5629 5628 5628 5627 5627 5626 5626 5625 5625 5625 5625 5625 5625 5625 5625 5625 5625 5625 5625 5625 5625 5625 5625 5625 5625 5626 5626 5626 5625 5625 5625 5625 5625 5626 5626 5627 5627 5627 5627 5627 5628 5628 5628 5629 5630 5631 5632 5633 5634 5635 5635 5636 5637 5638 5639 5639 5640 5640 5641 5642 5642
5631 5631 5631 5631 5631 5631 5631 5631 5631 5630 5630 5630 5630 5630 5630 5629 5629 5628 5628 5628 5627 5627 5626 5626 5625 5625 5625 5624 5624 5624 5623 5622 5622 5622 5622 5622 5622 5622 5623 5622 5622 5622 5622 5622 5622 5622 5622 5623 5623 5623 5623 5623 5623 5623 5623 5623 5623 5624 5624 5625 5625 5625 5625 5625 5625 5625 5625 5626 5627 5628 5629 5630 5631 5632 5633 5634 5635 5635 5636 5637 5637 5638 5639 5639 5640 5640
5627 5628 5628 5628 5628 5627 5628 5628 5628 5627 5627 5627 5626 5626 5626 5626 5625 5625 5625 5624 5624 5623 5623 5622 5622 5622 5621 5620 5620 5620 5620 5620 5619 5619 5620 5619 5619 5620 5620 5619 5619 5619 5619 5619 5619 5619 5620 5620 5620 5620 5620 5620 5620 5620 5621 5621 5621 5622 5622 5622 5622 5623 5623 5623 5623 5623 5623 5624 5625 5626 5627 5628 5629 5630 5631 5632 5633 5633 5634 5635 5635 5636 5636 5637 5638 5638
5624 5624 5624 5624 5624 5624 5624 5624 5624 5624 5623 5623 5623 5623 5622 5622 5622 5621 5621 5620 5620 5619 5619 5619 5618 5618 5618 5617 5617 5616 5617 5616 5616 5616 5616 5616 5616 5616 5616 5616 5616 5616 5616 5616 5616 5616 5617 5617 5617 5617 5618 5618 5618 5618 5619 5619 5619 5620 5620 5620 5620 5620 5620 5620 5621 5621 5621 5622 5623 5624 5625 5626 5627 5628 5629 5630 5631 5631 5632 5633 5634 5634 5635 5635 5636 5636
5620 5620 5620 5620 5620 5620 5620 5621 5620 5620 5620 5619 5619 5619 5619 5619 5618 5618 5618 5617 5616 5616 5615 5615 5615 5615 5615 5614 5613 5613 5613 5613 5613 5613 5614 5614 5613 5613 5613 5613 5613 5613 5613 5613 5613 5614 5614 5614 5615 5615 5615 5615 5615 5616 5616 5616 5617 5617 5617 5618 5618 5618 5618 5618 5619 5619 5620 5620 5621 5623 5624 5625 5626 5627 5627 5628 5629 5630 5630 5631 5632 5632 5633 5633 5634 5635
5617 5617 5617 5617 5617 5617 5617 5617 5617 5617 5616 5615 5615 5615 5615 5615 5615 5614 5614 5613 5613 5612 5612 5612 5611 5611 5611 5611 5610 5609 5610 5610 5610 5610 5610 5610 5610 5610 5610 5610 5610 5610 5610 5610 5611 5611 5611 5611 5612 5612 5612 5613 5613 5614 5614 5614 5614 5615 5615 5615 5615 5616 5616 5616 5617 5617 5618 5619 5620 5621 5622 5623 5624 5625 5626 5626 5627 5628 5629 5629 5630 5630 5631 5632 5632 5633
5613 5613 5613 5613 5614 5613 5613 5613 5613 5613 5612 5611 5611 5611 5611 5611 5611 5610 5610 5610 5610 5609 5609 5608 5608 5608 5608 5607 5606 5606 5606 5607 5607 5607 5607 5607 5607 5607 5607 5607 5607 5607 5608 5608 5608 5608 5608 5609 5609 5609 5610 5610 5610 5611 5611 5611 5612 5612 5613 5613 5613 5614 5614 5615 5615 5616 5617 5618 5619 5620 5621 5622 5623 5623 5624 5625 5625 5626 5627 5627 5628 5629 5629 5630 5630 5631
5609 5609 5609 5610 5610 5610 5610 5610 5609 5609 5608 5608 5608 5608 5607 5607 5607 5606 5606 5606 5606 5605 5605 5605 5605 5605 5604 5604 5603 5603 5604 5604 5604 5604 5604 5604 5604 5604 5604 5604 5604 5605 5605 5605 5605 5605 5605 5606 5606 5606 5607 5608 5608 5609 5609 5609 5610 5610 5610 5611 5611 5611 5612 5613 5613 5614 5615 5616 5618 5619 5620 5620 5621 5622 5622 5623 5624 5624 5625 5625 5626 5627 5627 5628 5629 5629
5605 5605 5605 5605 5605 5605 5605 5605 5605 5605 5605 5604 5604 5604 5604 5604 5603 5603 5602 5602 5602 5602 5602 5601 5601 5601 5600 5600 5600 5600 5600 5601 5600 5600 5601 5600 5601 5601 5601 5601 5602 5602 5602 5602 5602 5602 5603 5603 5603 5604 5604 5605 5605 5606 5607 5607 5607 5608 5608 5609 5609 5610 5610 5611 5612 5613 5614 5615 5616 5617 5618 5619 5619 5620 5621 5621 5622 5623 5623 5624 5624 5625 5625 5626 5627 5627
5601 5601 5601 5601 5601 5601 5601 5601 5601 5601 5601 5600 5600 5600 5600 5600 5600 5599 5599 5599 5598 5598 5598 5598 5597 5597 5597 5598 5598 5597 5597 5597 5597 5598 5598 5598 5598 5598 5599 5599 5599 5600 5600 5600 5600 5600 5600 5600 5600 5601 5602 5602 5603 5604 5604 5605 5605 5605 5606 5606 5607 5608 5609 5610 5610 5612 5613 5614 5615 5615 5616 5617 5618 5618 5619 5620 5620 5621 5621 5622 5623 5623 5624 5624 5625 5625
5597 5597 5597 5598 5598 5598 5598 5598 5598 5597 5597 5597 5597 5596 5596 5596 5595 5595 5595 5595 5595 5595 5595 5595 5594 5594 5595 5595 5595 5595 5594 5595 5595 5595 5595 5595 5595 5596 5596 5596 5597 5597 5597 5597 5597 5597 5597 5597 5598 5599 5599 5600 5601 5601 5602 5602 5603 5603 5604 5605 5605 5606 5607 5608 5609 5610 5611 5612 5613 5614 5615 5615 5616 5617 5617 5618 5618 5619 5620 5620 5621 5621 5622 5622 5623 5623
5593 5593 5594 5594 5594 5594 5594 5594 5594 5594 5594 5593 5593 5593 5592 5592 5592 5592 5592 5592 5591 5591 5591 5591 5591 5591 5591 5591 5592 5592 5592 5592 5592 5592 5592 5592 5593 5593 5594 5594 5594 5594 5595 5595 5594 5594 5595 5595 5595 5596 5597 5598 5598 5599 5600 5600 5601 5601 5602 5603 5604 5605 5605 5607 5608 5609 5610 5611 5611 5612 5613 5614 5614 5615 5615 5616 5617 5617 5618 5618 5619 5620 5620 5620 5621 5621
5590 5590 5590 5590 5590 5590 5590 5590 5590 5590 5590 5590 5590 5589 5589 5589 5589 5588 5588 5588 5588 5588 5588 5588 5588 5588 5588 5588 5589 5589 5589 5589 5589 5589 5590 5590 5590 5590 5591 5591 5591 5592 5592 5592 5592 5592 5592 5593 5593 5594 5595 5595 5596 5597 5597 5598 5599 5600 5600 5601 5602 5603 5604 5605 5606 5607 5608 5609 5610 5610 5611 5612 5613 5613 5614 5614 5615 5615 5616 5616 5617 5617 5618 5619 5619 5620
5585 5586 5586 5586 5586 5586 5586 5586 5586 5586 5586 5586 5586 5585 5585 5585 5585 5585 5585 5585 5585 5585 5585 5585 5585 5585 5585 5585 5586 5586 5586 5586 5586 5586 5587 5587 5587 5588 5588 5588 5589 5589 5590 5590 5590 5590 5590 5590 5591 5592 5592 5593 5594 5595 5596 5596 5597 5598 5599 5600 5601 5602 5603 5604 5605 5606 5607 5608 5608 5609 5610 5610 5611 5611 5612 5612 5613 5614 5614 5615 5615 5615 5616 5616 5617 5617
5582 5582 5582 5583 5583 5583 5583 5583 5583 5583 5582 5582 5582 5582 5582 5582 5582 5581 5581 5582 5582 5582 5582 5582 5582 5582 5582 5583 5583 5583 5584 5584 5584 5584 5584 5585 5585 5585 5586 5586 5586 5586 5587 5587 5588 5588 5588 5589 5589 5590 5590 5591 5592 5593 5594 5595 5596 5597 5598 5599 5600 5601 5602 5603 5604 5604 5605 5606 5606 5607 5608 5608 5609 5610 5610 5610 5611 5611 5612 5613 5613 5614 5614 5615 5615 5615
5578 5579 5579 5579 5579 5579 5579 5579 5579 5579 5579 5579 5578 5578 5578 5578 5578 5578 5578 5578 5579 5579 5579 5579 5579 5580 5580 5580 5580 5580 5581 5581 5581 5581 5581 5582 5582 5583 5584 5584 5584 5584 5585 5585 5585 5585 5586 5586 5587 5588 5589 5589 5590 5591 5592 5593 5594 5595 5596 5597 5598 5599 5600 5601 5602 5603 5603 5604 5605 5605 5606 5606 5607 5607 5608 5609 5609 5610 5610 5610 5611 5612 5612 5612 5613 5613
5575 5575 5575 5575 5575 5575 5575 5575 5575 5575 5575 5575 5575 5575 5575 5575 5575 5575 5575 5575 5576 5576 5576 5576 5576 5577 5577 5577 5577 5578 5578 5578 5578 5578 5579 5579 5580 5580 5581 5581 5581 5582 5582 5583 5583 5584 5584 5585 5585 5586 5587 5588 5589 5590 5590 5592 5593 5594 5595 5596 5597 5598 5599 5599 5600 5601 5601 5602 5603 5603 5604 5605 5605 5605 5606 5607 5607 5608 5608 5609 5609 5610 5610 5610 5611 5611
5571 5572 5572 5572 5572 5572 5572 5572 5572 5572 5572 5571 5571 5571 5572 5572 5572 5572 5572 5572 5573 5574 5574 5574 5574 5574 5575 5575 5575 5575 5575 5576 5576 5576 5576 5577 5577 5578 5578 5579 5579 5580 5580 5581 5581 5582 5582 5583 5584 5585 5585 5586 5587 5588 5589 5590 5591 5592 5593 5594 5595 5596 5597 5597 5598 5599 5600 5600 5601 5601 5602 5603 5603 5604 5604 5605 5605 5606 5606 5607 5607 5608 5608 5609 5609 5609
5568 5568 5568 5568 5568 5568 5568 5568 5568 5568 5568 5568 5568 5568 5569 5569 5569 5569 5570 5570 5570 5570 5571 5571 5571 5571 5572 5572 5572 5573 5573 5573 5573 5573 5574 5574 5575 5575 5576 5576 5577 5577 5578 5579 5580 5580 5581 5582 5583 5584 5584 5585 5586 5587 5588 5589 5590 5591 5592 5593 5593 5594 5595 5595 5596 5597 5598 5598 5599 5600 5600 5600 5601 5602 5602 5603 5603 5604 5604 5605 5605 5605 5606 5606 5607 5607
5564 5565 5565 5565 5565 5565 5565 5565 5565 5565 5565 5565 5565 5565 5565 5566 5566 5566 5567 5567 5568 5568 5568 5569 5569 5569 5569 5570 5570 5570 5570 5570 5571 5571 5571 5572 5572 5573 5574 5574 5575 5575 5576 5577 5578 5579 5580 5580 5581 5582 5583 5584 5585 5586 5587 5588 5588 5589 5590 5591 5592 5592 5593 5594 5594 5595 5595 5596 5597 5597 5598 5599 5599 5600 5600 5601 5601 5602 5602 5603 5603 5604 5604 5604 5605 5605
5561 5561 5561 5561 5561 5561 5561 5561 5562 5562 5562 5562 5562 5563 5563 5563 5564 5564 5564 5565 5565 5565 5566 5566 5566 5566 5567 5567 5567 5568 5568 5568 5568 5569 5569 5570 5570 5571 5572 5572 5573 5574 5575 5575 5576 5577 5578 5579 5580 5581 5582 5583 5584 5585 5585 5586 5587 5587 5588 5589 5590 5590 5591 5592 5592 5593 5594 5594 5595 5595 5596 5597 5597 5598 5598 5599 5599 5600 5600 5601 5601 5601 5602 5602 5603 5603
5557 5557 5558 5558 5558 5558 5558 5558 5559 5559 5559 5560 5560 5560 5560 5560 5561 5561 5562 5562 5563 5563 5563 5563 5564 5564 5564 5565 5565 5565 5566 5566 5566 5567 5567 5568 5569 5569 5570 5571 5572 5572 5573 5574 5575 5575 5576 5577 5578 5579 5580 5581 5582 5583 5584 5584 5585 5586 5586 5587 5588 5589 5589 5590 5590 5591 5592 5592 5593 5593 5594 5595 5595 5595 5596 5597 5597 5598 5598 5599 5599 5599 5600 5600 5600 5600
5553 5554 5554 5554 5555 5555 5555 5555 5556 5556 5556 5557 5557 5557 5558 5558 5559 5559 5560 5560 5560 5560 5561 5561 5561 5561 5562 5562 5563 5563 5564 5564 5565 5565 5566 5566 5567 5568 5569 5570 5570 5571 5572 5572 5573 5574 5575 5576 5577 5578 5579 5579 5580 5581 5582 5583 5583 5584 5585 5585 5586 5587 5587 5588 5589 5589 5590 5590 5591 5591 5592 5592 5593 5594 5594 5595 5595 5595 5596 5596 5596 5597 5597 5597 5597 5598
5550 5550 5550 5551 5551 5552 5552 5553 5553 5553 5554 5554 5555 5555 5555 5555 5556 5556 5557 5557 5558 5558 5558 5559 5559 5559 5560 5560 5561 5561 5562 5562 5563 5564 5564 5565 5565 5566 5567 5568 5569 5570 5570 5571 5572 5573 5574 5575 5575 5576 5577 5578 5579 5580 5580 5581 5582 5583 5583 5584 5584 5585 5585 5586 5587 5587 5588 5588 5589 5590 5590 5590 5591 5591 5592 5592 5593 5593 5593 5594 5594 5594 5595 5595 5595 5595
5546 5547 5547 5548 5548 5549 5549 5550 5550 5550 5551 5551 5552 5552 5553 5553 5554 5554 5555 5555 5555 5556 5556 5556 5557 5557 5558 5558 5559 5560 5560 5561 5561 5562 5563 5564 5564 5565 5566 5567 5567 5568 5569 5570 5571 5571 5572 5573 5574 5574 5575 5576 5577 5578 5579 5580 5580 5581 5581 5582 5582 5583 5584 5584 5585 5585 5586 5586 5587 5587 5588 5588 5589 5589 5590 5590 5590 5591 5591 5591 5591 5591 5591 5591 5592 5592
5543 5543 5544 5545 5545 5546 5546 5547 5547 5548 5548 5549 5549 5550 5550 5550 5551 5551 5552 5552 5553 5553 5554 5554 5555 5555 5556 5556 5557 5558 5559 5559 5560 5561 5561 5562 5563 5564 5564 5565 5566 5567 5567 5568 5569 5570 5571 5571 5572 5573 5574 5574 5575 5576 5577 5578 5579 5579 5580 5580 5581 5581 5582 5582 5583 5583 5584 5584 5585 5585 5586 5586 5586 5587 5587 5588 5588 5588 5589 5589 5589 5589 5589 5589 5589 5589
5540 5540 5541 5542 5542 5543 5543 5544 5544 5545 5545 5546 5547 5547 5548 5548 5549 5549 5550 5550 5550 5551 5552 5552 5553 5553 5554 5555 5555 5556 5557 5558 5558 5559 5560 5560 5561 5562 5563 5564 5564 5565 5566 5567 5567 5568 5569 5570 5570 5571 5572 5573 5574 5575 5575 5576 5577 5577 5578 5578 5579 5580 5580 5580 5580 5581 5582 5582 5583 5583 5583 5584 5584 5585 5585 5585 5585 5586 5586 5586 5586 5586 5586 5586 5586 5586
5536 5537 5538 5539 5539 5540 5540 5541 5542 5542 5543 5544 5544 5545 5545 5546 5546 5546 5547 5548 5548 5549 5550 5550 5551 5551 5552 5553 5554 5554 5555 5556 5557 5557 5558 5559 5560 5560 5561 5562 5563 5563 5564 5565 5566 5566 5567 5568 5569 5570 5570 5571 5572 5573 5573 5574 5575 5575 5576 5576 5577 5577 5578 5578 5579 5579 5580 5580 5580 5581 5581 5581 5582 5582 5583 5583 5583 5583 5584 5584 5584 5584 5583 5583 5583 5583
5533 5534 5535 5536 5536 5537 5537 5538 5539 5540 5540 5541 5542 5542 5543 5543 5544 5544 5545 5545 5546 5547 5547 5548 5549 5550 5551 5551 5552 5553 5553 5554 5555 5556 5556 5557 5558 5559 5559 5560 5561 5561 5562 5563 5564 5565 5566 5566 5567 5568 5569 5570 5570 5571 5571 5572 5573 5573 5574 5574 5575 5575 5576 5576 5576 5577 5577 5577 5578 5578 5579 5579 5580 5580 5580 5580 5581 5581 5581 5581 5581 5581 5581 5581 5580 5580
5530 5531 5532 5533 5533 5534 5535 5536 5537 5538 5538 5539 5540 5540 5540 5540 5541 5542 5542 5543 5544 5545 5545 5546 5547 5548 5549 5550 5550 5551 5552 5552 5553 5554 5555 5555 5556 5557 5557 5558 5559 5560 5560 5561 5562 5563 5564 5565 5566 5566 5567 5568 5569 5569 5570 5570 5571 5571 5572 5572 5573 5573 5574 5574 5574 5575 5575 5575 5575 5576 5576 5577 5577 5578 5578 5578 5578 5578 5579 5579 5579 5578 5578 5578 5578 5578
5527 5528 5529 5530 5530 5531 5532 5533 5534 5535 5536 5536 5537 5537 5538 5538 5539 5540 5540 5541 5542 5543 5544 5544 5545 5546 5547 5548 5548 5549 5550 5550 5551 5552 5553 5553 5554 5555 5555 5556 5557 5558 5559 5560 5560 5561 5562 5563 5564 5565 5565 5566 5567 5567 5568 5568 5569 5569 5570 5570 5570 5571 5571 5572 5572 5572 5573 5573 5573 5574 5574 5575 5575 5575 5575 5576 5576 5576 5576 5576 5576 5576 5576 5575 5575 5575
5524 5525 5526 5527 5528 5529 5530 5531 5532 5533 5533 5534 5535 5535 5535 5536 5536 5537 5538 5539 5540 5541 5542 5542 5543 5544 5545 5545 5546 5547 5548 5549 5550 5550 5551 5551 5552 5553 5554 5555 5555 5556 5557 5558 5559 5560 5560 5561 5562 5563 5563 5564 5565 5565 5566 5566 5567 5567 5568 5568 5568 5569 5569 5569 5570 5570 5570 5571 5571 5571 5572 5572 5572 5573 5573 5573 5573 5573 5573 5573 5573 5573 5573 5573 5573 5573
5521 5522 5523 5524 5525 5526 5527 5528 5529 5530 5531 5532 5532 5533 5533 5534 5534 5535 5536 5537 5538 5539 5540 5540 5541 5542 5543 5543 5544 5545 5546 5546 5547 5548 5549 5550 5550 5551 5552 5553 5554 5555 5555 5556 5557 5558 5558 5559 5560 5561 5561 5562 5563 5563 5564 5564 5565 5565 5565 5566 5566 5567 5567 5567 5567 5568 5568 5568 5569 5569 5570 5570 5570 5570 5570 5570 5570 5570 5570 5570 5570 5570 5570 5570 5570 5570
5519 5520 5520 5522 5523 5524 5525 5526 5527 5528 5528 5529 5530 5530 5531 5531 5532 5533 5534 5535 5536 5537 5538 5539 5539 5540 5540 5541 5542 5543 5544 5544 5545 5546 5547 5548 5549 5549 5550 5551 5552 5553 5554 5555 5555 5556 5556 5557 5558 5559 5559 5560 5560 5561 5562 5562 5562 5563 5563 5564 5564 5565 5565 5565 5565 5565 5566 5566 5566 5567 5567 5567 5568 5568 5568 5568 5568 5568 5568 5568 5568 5568 5568 5568 5568 5568
5516 5517 5518 5519 5520 5521 5522 5523 5524 5525 5526 5527 5527 5528 5529 5529 5530 5531 5532 5533 5534 5535 5535 5536 5537 5538 5538 5539 5540 5541 5542 5543 5543 5544 5545 5546 5547 5548 5548 5549 5550 5551 5552 5553 5553 5554 5555 5555 5556 5556 5557 5558 5558 5559 5560 5560 5560 5560 5561 5561 5562 5562 5563 5563 5563 5563 5564 5564 5564 5564 5565 5565 5565 5565 5565 5565 5565 5565 5565 5565 5565 5565 5565 5565 5565 5565
5513 5514 5515 5516 5517 5518 5520 5521 5522 5523 5524 5524 5525 5526 5526 5527 5528 5529 5530 5531 5532 5533 5533 5534 5535 5535 5536 5537 5538 5539 5540 5541 5542 5543 5544 5544 5545 5546 5547 5548 5548 5549 5550 5551 5551 5552 5553 5553 5554 5555 5555 5555 5556 5556 5557 5558 5558 5558 5559 5559 5560 5560 5560 5561 5561 5561 5561 5562 5562 5562 5562 5562 5562 5563 5563 5563 5563 5563 5563 5563 5563 5563 5563 5563 5562 5562
5510 5511 5513 5514 5515 5516 5517 5519 5520 5520 5521 5522 5523 5524 5525 5525 5526 5527 5528 5529 5530 5530 5531 5532 5533 5534 5535 5535 5536 5537 5538 5539 5540 5541 5542 5543 5543 5544 5545 5546 5547 5547 5548 5549 5550 5550 5551 5551 5552 5552 5553 5553 5554 5554 5555 5555 5556 5556 5557 5557 5557 5558 5558 5559 5559 5559 5559 5559 5560 5560 5560 5560 5560 5560 5560 5560 5560 5560 5560 5560 5560 5560 5560 5560 5560 5560